Regional Weather Roundup
Issued by NWS Sioux Falls, SD

Home | Current Version | Previous Version | Text Only | Print | Product List | Glossary On
Versions: 1 2 3 4 5 6 7 8 9 10 11 12 13 14 15 16 17 18 19 20 21 22 23 24 25 26 27 28 29 30 31 32 33 34 35 36 37 38 39 40 41 42 43 44 45 46 47 48 49 50
000
ASUS43 KFSD 040002
RWRFSD

WEATHER ROUNDUP FOR SE SOUTH DAKOTA/SW MINNESOTA/NW IOWA
NATIONAL WEATHER SERVICE SIOUX FALLS SD
700 PM CDT THU SEP 03 2015

NOTE: "FAIR" INDICATES FEW OR NO CLOUDS BELOW 12,000 FEET WITH NO
SIGNIFICANT WEATHER AND OR OBSTRUCTIONS TO VISIBILITY.


SDZ038>040-050-052>070-040100-
SOUTHEAST SOUTH DAKOTA

CITY           SKY/WX    TMP DP  RH WIND       PRES   REMARKS
BROOKINGS      CLEAR     82  70  65 SE14      29.80F
CHAMBERLAIN    PTSUNNY   83  72  70 SE9       29.71S
6HR MIN TEMP:  83; 6HR MAX TEMP:  91;

HURON          SUNNY     87  71  58 SE13      29.71S
6HR MIN TEMP:  86; 6HR MAX TEMP:  92;

MADISON        FAIR      81  75  83 SE10G18   29.79S
MITCHELL       MOSUNNY   85  72  65 SE10      29.73S
6HR MIN TEMP:  85; 6HR MAX TEMP:  92;

SIOUX FALLS    PTCLDY    83  71  67 S13       29.78S
6HR MIN TEMP:  83; 6HR MAX TEMP:  87;

WINNER         FAIR      87  67  51 SE10      29.71S
YANKTON        MOSUNNY   84  73  70 SE12      29.74S
$$

MNZ071-072-080-081-089-090-097-098-040100-
SOUTHWEST MINNESOTA

CITY           SKY/WX    TMP DP  RH WIND       PRES   REMARKS
FAIRMONT       CLEAR     84  68  58 SE8       29.83S
JACKSON        CLEAR     84  73  70 SE8       29.84S
LUVERNE        CLEAR     84  72  65 SE8       29.80S
MARSHALL       CLEAR     86  72  62 SE12      29.81S
6HR MIN TEMP:  84; 6HR MAX TEMP:  90;

MONTEVIDEO     CLEAR     88  73  62 SE9       29.81S HX  96
PIPESTONE      CLEAR     82  72  69 S7        29.82S
REDWOOD FALLS  CLEAR     86  75  69 SE8       29.80S HX  95
TRACY          CLEAR     85  76  75 SE6       29.82S
WINDOM         CLEAR     84  72  65 SE7       29.83S
WORTHINGTON    PTCLDY    82  72  69 SE7       29.83S
$$

IAZ001>003-012>014-020>022-031-032-NEZ013-014-SDZ071-040100-
NORTHWEST IOWA

CITY           SKY/WX    TMP DP  RH WIND       PRES   REMARKS
ESTHERVILLE    PTCLDY    83  74  74 S7        29.83S
SIOUX CITY     CLEAR     85  71  63 SE9       29.76F
6HR MIN TEMP:  85; 6HR MAX TEMP:  88;

SPENCER        CLEAR     84  73  69 S7        29.82S
6HR MIN TEMP:  84; 6HR MAX TEMP:  88;

$$

ABBREVIATIONS USED IN REMARKS
   TC - TEMPERATURE IN CELSIUS
  WCI - WIND CHILL INDEX
   HX - HEAT INDEX
  VSB - VISIBILITY




USA.gov is the U.S. government's official web portal to all federal, state and local government web resources and services.